Weather History for New Delhi, India

Change the Weather History Date:

Friday, October 26, 2012

  Actual Average Record
Temperature  
Mean Temperature 70 °F -  
Max Temperature 82 °F 81 °F 93 °F (2000)
Min Temperature 59 °F 57 °F 59 °F (2012)
Cooling Degree Days 6    
Growing Degree Days 20 (Base 50)    
Moisture  
Dew Point 53 °F    
Average Humidity 55    
Maximum Humidity 88    
Minimum Humidity 26    
Precipitation  
Precipitation 0.00 in - - ()
Sea Level Pressure  
Sea Level Pressure 29.93 in    
Wind  
Wind Speed 1 mph ()    
Max Wind Speed 7 mph    
Max Gust Speed -    
Visibility 1.1 miles    
Events      
Averages and records for this station are not official NWS values.
T = Trace of Precipitation, MM = Missing Value Source: Averaged Metar Reports

Daily Weather History Graph

Daily Weather History Graph

Search for Another Location

Airport:

Trip Planner

Search our weather history database for the weather conditions in past years. The results will help you decide how hot, cold, wet, or windy it might be!

Date:

Astronomy

Oct. 26, 2012 Rise Set
Actual Time 6:29 AM IST 5:41 PM IST
Civil Twilight 6:05 AM IST 6:05 PM IST
Nautical Twilight 5:37 AM IST 6:33 PM IST
Astronomical Twilight 5:10 AM IST 7:00 PM IST
Moon 3:31 PM IST (10/26) 3:12 AM IST (10/26)
Length of Visible Light 12h 00m
Length of Day
11h 11m
Waxing Gibbous, 88% of the Moon is Illuminated
Oct 26
Waxing Gibbous
Oct 30
Full
Nov 7
Last Quarter
Nov 14
New
Nov 20
First Quarter

Hourly Weather History & Observations

Time (IST) Temp. Dew Point Humidity Pressure Visibility Wind Dir Wind Speed Gust Speed Precip Events Conditions
12:00 AM 68.0 °F 55.4 °F 64% 29.89 in 1.0 mi Calm Calm - N/A   Haze
12:30 AM 66.2 °F 55.4 °F 68% 29.89 in 1.0 mi Calm Calm - N/A   Haze
1:00 AM 66.2 °F 55.4 °F 68% 29.89 in 1.0 mi Calm Calm - N/A   Haze
1:30 AM 64.4 °F 55.4 °F 73% 29.89 in 1.0 mi Calm Calm - N/A   Haze
2:00 AM 64.4 °F 55.4 °F 73% 29.89 in 1.0 mi Calm Calm - N/A   Haze
2:30 AM 64.4 °F 55.4 °F 73% 29.89 in 1.0 mi Calm Calm - N/A   Haze
3:30 AM 62.6 °F 55.4 °F 77% 29.89 in 0.9 mi Calm Calm - N/A   Haze
4:00 AM 62.6 °F 55.4 °F 77% 29.89 in 0.9 mi Calm Calm - N/A   Haze
4:30 AM 60.8 °F 55.4 °F 82% 29.89 in 0.9 mi Calm Calm - N/A   Mist
5:00 AM 60.8 °F 55.4 °F 82% 29.89 in 0.9 mi Calm Calm - N/A   Mist
5:30 AM 60.8 °F 55.4 °F 82% 29.92 in 0.9 mi Calm Calm - N/A   Mist
6:00 AM 60.8 °F 55.4 °F 82% 29.92 in 0.9 mi Calm Calm - N/A   Mist
6:30 AM 60.8 °F 55.4 °F 82% 29.92 in 0.9 mi Calm Calm - N/A   Mist
7:00 AM 59.0 °F 55.4 °F 88% 29.95 in 0.9 mi Calm Calm - N/A   Mist
7:30 AM 60.8 °F 55.4 °F 82% 29.95 in 0.9 mi Calm Calm - N/A   Mist
8:00 AM 62.6 °F 57.2 °F 82% 29.95 in 0.9 mi Calm Calm - N/A   Mist
8:30 AM 66.2 °F 57.2 °F 73% 29.98 in 0.9 mi Calm Calm - N/A   Smoke
9:00 AM 69.8 °F 55.4 °F 60% 29.98 in 0.9 mi Calm Calm - N/A   Smoke
9:30 AM 71.6 °F 55.4 °F 57% 29.98 in 0.9 mi Calm Calm - N/A   Smoke
10:00 AM 75.2 °F 55.4 °F 50% 30.01 in 0.9 mi Calm Calm - N/A   Smoke
10:30 AM 77.0 °F 53.6 °F 44% 30.01 in 0.9 mi SE 2.3 mph - N/A   Smoke
11:00 AM 78.8 °F 51.8 °F 39% 30.01 in 1.0 mi SSW 4.6 mph - N/A   Smoke
11:30 AM 80.6 °F 50.0 °F 34% 30.01 in 1.0 mi South 3.5 mph - N/A   Smoke
12:00 PM 80.6 °F 50.0 °F 34% 29.98 in 1.2 mi SW 3.5 mph - N/A   Smoke
12:30 PM 80.6 °F 48.2 °F 32% 29.98 in 1.4 mi West 4.6 mph - N/A   Smoke
1:00 PM 82.4 °F 48.2 °F 30% 29.95 in 1.7 mi NW 6.9 mph - N/A   Smoke
2:00 PM 82.4 °F 46.4 °F 28% 29.95 in 1.9 mi WNW 5.8 mph - N/A   Haze
2:30 PM 82.4 °F 44.6 °F 26% 29.92 in 1.9 mi WNW 6.9 mph - N/A   Haze
3:00 PM 82.4 °F 46.4 °F 28% 29.92 in 1.9 mi NW 6.9 mph - N/A   Haze
3:30 PM 82.4 °F 46.4 °F 28% 29.89 in 1.9 mi North 6.9 mph - N/A   Haze
4:00 PM 82.4 °F 46.4 °F 28% 29.89 in 1.9 mi NW 4.6 mph - N/A   Haze
4:30 PM 80.6 °F 48.2 °F 32% 29.89 in 1.9 mi North 4.6 mph - N/A   Haze
5:00 PM 80.6 °F 48.2 °F 32% 29.89 in 1.6 mi WNW 3.5 mph - N/A   Smoke
5:30 PM 78.8 °F 50.0 °F 36% 29.89 in 1.6 mi NW 3.5 mph - N/A   Smoke
6:00 PM 77.0 °F 51.8 °F 41% 29.89 in 1.6 mi NNW 3.5 mph - N/A   Smoke
6:30 PM 75.2 °F 53.6 °F 47% 29.92 in 1.4 mi NE 2.3 mph - N/A   Smoke
7:00 PM 75.2 °F 51.8 °F 44% 29.92 in 1.1 mi Calm Calm - N/A   Smoke
8:00 PM 73.4 °F 51.8 °F 47% 29.95 in 0.9 mi ENE 2.3 mph - N/A   Smoke
8:30 PM 73.4 °F 51.8 °F 47% 29.95 in 0.9 mi Calm Calm - N/A   Smoke
9:00 PM 71.6 °F 51.8 °F 50% 29.95 in 0.9 mi Calm Calm - N/A   Smoke
9:30 PM 71.6 °F 53.6 °F 53% 29.95 in 0.9 mi Calm Calm - N/A   Smoke
10:00 PM 71.6 °F 51.8 °F 50% 29.95 in 0.9 mi Calm Calm - N/A   Smoke
10:30 PM 71.6 °F 51.8 °F 50% 29.95 in 0.9 mi Calm Calm - N/A   Smoke
11:00 PM 68.0 °F 53.6 °F 60% 29.95 in 0.7 mi Calm Calm - N/A   Smoke
11:30 PM 68.0 °F 53.6 °F 60% 29.95 in 0.7 mi Calm Calm - N/A   Smoke